Location: Dal�� Lhota
(48.7500°N, 14.0167°E)
Time: 00:27:58
(UTC+00:00)

Vanguard 3 - Pass Details

Date: 31 July 2021
Orbit: 510 x 3260 km, 33.3° (Epoch: 19 September)

Event Time Altitude Azimuth Distance (km) Brightness Sun altitude
Rises 17:05:23 0° 228° (SW) 5,687 12.0 14.3°
Reaches altitude 10° 17:08:58 10° 222° (SW) 5,012 11.7 13.7°
Maximum altitude 17:23:07 41° 159° (SSE) 3,919 10.5 11.4°
Drops below altitude 10° 17:40:39 10° 98° (E) 6,158 11.0 8.7°
Sets 17:45:39 0° 93° (E) 7,057 11.3 7.9°
